STARLINK-5362, 55493

Orbit data source: Space-Track

STARLINK-5362, 55493 is a payload satellite owned by SpaceX/Seattle (US) in LEO that was launched on Thu, 02 Feb 2023 UTC via an FALCON 9 launch vehicle from the Air Force Eastern Test Range (AFETR). Payload-class satellites include a variety of spacecraft equipped with specific instruments for various scientific and technological missions. These include communications satellites like Starlink; space stations such as the ISS; scientific satellites like the Hubble; Earth observation satellites from companies like Planet Labs, Umbra, and HawkEye 360; GPS; miniature CubeSats for education and research; and military/defense satellites.

Loading next visibility...
Identifier
55493, 2023-015AW
Orbit
LEO
Country
Flag of USUS
Related business
Manufacturer
SpaceX/Seattle
Mission
Operational Commercial Communications
Bus & Motor
STARLINK, Unknown motor
Mass
305 kg wet, ~290 kg dry
Launch date (UTC)
2023-02-02 (4 years ago)
Launch vehicle
FALCON 9
Launch site
Air Force Eastern Test Range (AFETR)
Object type
Payload
Rocket body
Debris
Shape & HBR
Box + 1 Pan, 10.1 m
Radar Cross Section
13.562 m², Large (>1 m²)

Expand to show TLE details & history
Last TLE update: 4 hours ago

TLE from 4 hours ago
0 STARLINK-5362
1 55493U 23015AW  26258.54684942 -.00000409  00000-0 -53314-5 0  9998
2 55493  43.0033 347.3303 0001293 274.7694  85.3010 15.27581389199632
Epoch: 2026-09-15T13:07Z
TLE epoch observation values (Epoch: 2026-09-15T13:07:27.789Z)
Latitude
-0.00004°
Longitude
155.95324°
Altitude
482.748 km
Speed
7.626 km/s
True Right ascension
23h 09m 19s
True Declination
0° 00' 00"
Sunlit
Object was in full shadow at epoch
Visualization orbit readout
Latitude
Unknown
Longitude
Unknown
Altitude
Unknown
Speed
Unknown
Apparent Right ascension
Unknown
Apparent Declination
Unknown
Sunlit
N/A
Visualization observer readout
Local Sidereal Time
09:26:46
Azimuth
Unknown
Elevation
Unknown
Doppler factor
Unknown
Orbital elements
Apogee altitude
485.877 km
Perigee altitude
484.102 km
Semi-major axis
6,863.127 km
Eccentricity
0.00013
Inclination
43.0033°
RAAN
347.3303°
Arg. of periapsis
274.7694°
True anomaly
85.31577°
Mean anomaly
85.301°
Eccentric anomaly
85.30838°
Mean motion
3.81733 °/min
Orbital period
94.31 mins
BSTAR
-0.0000053314
Loading maneuver chart data...
Computing Atmospheric mass density...
Loading historical data...
Loading historical data...
Loading historical data...
Loading historical data...
Loading historical data...
Loading historical data...
Loading historical data...

Documentation

Showing up to 5 results
|